Flag for Switzerland Weather past 2 weeks in Vernier, Geneva, Switzerland

Now
32 °F

Clear.


Feels Like: 29 °F
Forecast: 42 / 49 °F
Wind: 3 mph from Southwest

Location: Geneva Cointrin Airport

Current Time: Mar 1, 2015 at 1:08:26 AM

Latest Report: Mar 1, 2015 at 12:20 AM


Visibility: 10 mi

Pressure: 30.07 "Hg

Humidity: 93%

Dew point: 30 °F

Location of VernierLocation

Historic Weather in Vernier — Graph

°F

Vernier temperature yesterday

Maximum temperature yesterday: 45 °F (at 2:20 PM)
Minimum temperature yesterday: 32 °F (at 10:20 PM)
Average temperature yesterday: 38 °F

Past Weeks' High & Low Weather Summary

 TemperatureHumidityPressure
High54 °F (Feb 20, 1:50 PM)100% (Feb 14, 1:50 AM)30.63 "Hg (Feb 14, 1:50 AM)
Low27 °F (Feb 20, 4:20 AM)26% (Feb 20, 2:20 PM)29.59 "Hg (Feb 21, 7:20 AM)
Average38 °F82%30.03 "Hg
* Reported Feb 13 11:20 PM — Feb 28 11:50 PM, Vernier, Weather by CustomWeather, © 2015

Note: Actual official high and low records may vary slightly from our data, if they occured in-between our weather recording intervals... More about our weather records

Advertising

Vernier weather history for previous 24 hours

 ConditionsComfort  
Time TempWeatherWind HumidityBarometerVisibility
11:50 PM
Sat, Feb 28
32 °FClear.2 mph87%30.07 "Hg10 mi
11:20 PM32 °FClear.2 mph87%30.07 "Hg10 mi
10:50 PM32 °FClear.2 mph87%30.07 "Hg10 mi
10:20 PM32 °FClear.2 mph87%30.09 "Hg10 mi
9:50 PM34 °FClear.1 mph81%30.09 "Hg10 mi
9:20 PM34 °FClear.3 mph87%30.09 "Hg10 mi
8:50 PM34 °FClear.2 mph87%30.09 "Hg10 mi
8:20 PM34 °FClear.1 mph81%30.09 "Hg10 mi
7:50 PM36 °FClear.3 mph75%30.09 "Hg10 mi
7:20 PM37 °FClear.1 mph75%30.09 "Hg10 mi
6:50 PM37 °FPassing clouds.1 mph75%30.07 "HgN/A
6:20 PM41 °FPassing clouds.3 mph66%30.07 "HgN/A
5:50 PM43 °FPassing clouds.5 mph57%30.07 "HgN/A
5:20 PM43 °FPassing clouds.5 mph57%30.07 "HgN/A
4:50 PM45 °FPassing clouds.5 mph53%30.07 "HgN/A
4:20 PM45 °FPartly sunny.2 mph57%30.07 "HgN/A
3:50 PM45 °FPartly sunny.5 mph57%30.09 "HgN/A
3:20 PM43 °FPartly sunny.7 mph57%30.09 "HgN/A
2:50 PM43 °FPartly sunny.7 mph61%30.09 "HgN/A
2:20 PM45 °FPartly sunny.7 mph57%30.09 "HgN/A
1:50 PM43 °FBroken clouds.8 mph61%30.09 "HgN/A
1:20 PM43 °FScattered clouds.7 mph61%30.12 "HgN/A
12:50 PM43 °FScattered clouds.9 mph66%30.12 "HgN/A
12:20 PM43 °FScattered clouds.8 mph66%30.12 "HgN/A
11:50 AM43 °FScattered clouds.10 mph66%30.12 "HgN/A
11:20 AM41 °FScattered clouds.10 mph70%30.12 "HgN/A
10:50 AM41 °FPartly sunny.10 mph66%30.15 "HgN/A
10:20 AM39 °FPartly sunny.12 mph70%30.15 "HgN/A
9:50 AM39 °FPartly sunny.12 mph70%30.15 "HgN/A
9:20 AM39 °FPartly sunny.9 mph75%30.15 "HgN/A
8:50 AM39 °FPartly sunny.3 mph75%30.12 "HgN/A
8:20 AM36 °FPartly sunny.2 mph87%30.12 "HgN/A
7:50 AM36 °FPartly sunny.2 mph81%30.12 "HgN/A
7:20 AM36 °FPartly sunny.2 mph81%30.12 "HgN/A
6:50 AM36 °FPassing clouds.2 mph81%30.12 "HgN/A
6:20 AM36 °FPassing clouds.2 mph81%30.12 "HgN/A
5:50 AM36 °FPassing clouds.2 mph81%30.12 "HgN/A
5:20 AM34 °FPassing clouds.1 mph87%30.12 "HgN/A
4:50 AM34 °FPassing clouds.1 mph87%30.12 "HgN/A
4:20 AM34 °FPartly cloudy.1 mph87%30.09 "HgN/A
3:50 AM34 °FPartly cloudy.2 mph87%30.12 "HgN/A
3:20 AM36 °FPassing clouds.1 mph81%30.12 "HgN/A
2:50 AM36 °FPassing clouds.1 mph81%30.12 "HgN/A
1:50 AM36 °FPassing clouds.2 mph81%30.12 "HgN/A
1:20 AM36 °FPassing clouds.3 mph81%30.15 "HgN/A
Weather by CustomWeather, © 2015

See weather overviewHow to use our weather pages